THY1525 LTFM-EDDB

Flight info

Callsign THY1525
Flight time N/A
Altitude 34000
Route TUDBU1E/36 TUDBU Q26 ETUBA DCT EVRIK DCT LITKU DCT ROMIS DCT BEFRE T204 NUKRO
Aircraft A320/M-SDE3FGHIRWY/LB1

Departure

Time N/A
Airport İstanbul Airport (LTFM)

Arrival

Time 2026-05-05 18:11
Airport Berlin Brandenburg Airport (EDDB)
Time Latitude Longitude Altitude Speed Heading
2026-05-05 16:55 46.95313 21.42872 33917 ft 440 kts 316°
2026-05-05 16:55 46.97540 21.39790 33919 ft 441 kts 316°
2026-05-05 16:56 47.01998 21.33613 33926 ft 441 kts 315°
2026-05-05 16:56 47.06451 21.27419 33932 ft 440 kts 315°
2026-05-05 16:57 47.10891 21.21223 33930 ft 441 kts 315°
2026-05-05 16:57 47.15344 21.15009 33924 ft 441 kts 315°
2026-05-05 16:58 47.19769 21.08818 33924 ft 442 kts 315°
2026-05-05 16:58 47.24242 21.02544 33926 ft 442 kts 315°
2026-05-05 16:59 47.28659 20.96336 33927 ft 442 kts 315°
2026-05-05 16:59 47.33099 20.90075 33931 ft 442 kts 315°
2026-05-05 17:00 47.37538 20.83806 33923 ft 442 kts 315°
2026-05-05 17:00 47.41977 20.77531 33929 ft 442 kts 314°
2026-05-05 17:01 47.46411 20.71239 33924 ft 442 kts 314°
2026-05-05 17:01 47.50838 20.64927 33925 ft 442 kts 314°
2026-05-05 17:02 47.55264 20.58605 33921 ft 442 kts 314°
2026-05-05 17:02 47.59687 20.52272 33922 ft 442 kts 314°
2026-05-05 17:03 47.64111 20.45924 33920 ft 442 kts 314°
2026-05-05 17:03 47.68539 20.39563 33934 ft 443 kts 314°
2026-05-05 17:04 47.72955 20.33195 33928 ft 443 kts 314°
2026-05-05 17:04 47.77350 20.26844 33930 ft 443 kts 314°
2026-05-05 17:05 47.81776 20.20445 33933 ft 443 kts 314°
2026-05-05 17:05 47.86188 20.14038 33938 ft 443 kts 314°
2026-05-05 17:06 47.89844 20.08716 33939 ft 442 kts 314°
2026-05-05 17:06 47.94247 20.02292 33938 ft 442 kts 314°
2026-05-05 17:07 47.98640 19.95870 33936 ft 442 kts 314°
2026-05-05 17:07 48.03025 19.89441 33946 ft 442 kts 314°
2026-05-05 17:08 48.07405 19.83007 33944 ft 441 kts 314°
2026-05-05 17:08 48.11753 19.76597 33942 ft 440 kts 314°
2026-05-05 17:09 48.16106 19.70158 33939 ft 440 kts 313°
2026-05-05 17:09 48.20459 19.63703 33934 ft 440 kts 313°
2026-05-05 17:10 48.24787 19.57217 33943 ft 439 kts 312°
2026-05-05 17:10 48.28946 19.50527 33939 ft 437 kts 310°
2026-05-05 17:11 48.33018 19.43786 33942 ft 437 kts 310°
2026-05-05 17:11 48.37109 19.37057 33931 ft 437 kts 311°
2026-05-05 17:12 48.41250 19.30320 33927 ft 437 kts 311°
2026-05-05 17:12 48.45387 19.23596 33926 ft 437 kts 311°
2026-05-05 17:13 48.49516 19.16849 33914 ft 437 kts 310°
2026-05-05 17:13 48.53626 19.10093 33917 ft 437 kts 310°
2026-05-05 17:14 48.57712 19.03360 33920 ft 437 kts 310°
2026-05-05 17:14 48.61818 18.96590 33921 ft 437 kts 310°
2026-05-05 17:15 48.65925 18.89802 33896 ft 437 kts 310°
2026-05-05 17:15 48.70022 18.82997 33894 ft 437 kts 310°
2026-05-05 17:16 48.74119 18.76188 33883 ft 438 kts 310°
2026-05-05 17:16 48.78218 18.69355 33891 ft 437 kts 310°
2026-05-05 17:17 48.82297 18.62527 33890 ft 436 kts 309°
2026-05-05 17:17 48.86363 18.55715 33884 ft 435 kts 309°
2026-05-05 17:18 48.90421 18.48895 33873 ft 435 kts 309°
2026-05-05 17:18 48.94448 18.42110 33865 ft 435 kts 310°
2026-05-05 17:19 48.98545 18.35185 33846 ft 437 kts 310°
2026-05-05 17:19 49.02568 18.28371 33854 ft 437 kts 310°
2026-05-05 17:20 49.06627 18.21489 33844 ft 437 kts 310°
2026-05-05 17:20 49.10681 18.14578 33842 ft 437 kts 309°
2026-05-05 17:21 49.14711 18.07654 33841 ft 436 kts 309°
2026-05-05 17:22 49.20633 17.97137 33836 ft 434 kts 308°
2026-05-05 17:22 49.24557 17.90117 33832 ft 434 kts 308°
2026-05-05 17:23 49.28486 17.83104 33829 ft 434 kts 308°
2026-05-05 17:23 49.32390 17.76130 33818 ft 434 kts 308°
2026-05-05 17:24 49.36323 17.69092 33804 ft 435 kts 309°
2026-05-05 17:24 49.40249 17.62030 33798 ft 435 kts 308°
2026-05-05 17:25 49.44172 17.54947 33797 ft 435 kts 308°
2026-05-05 17:25 49.48097 17.47854 33796 ft 436 kts 308°
2026-05-05 17:26 49.52031 17.40736 33789 ft 436 kts 308°
2026-05-05 17:26 49.55948 17.33616 33800 ft 436 kts 308°
2026-05-05 17:27 49.59835 17.26535 33805 ft 435 kts 308°
2026-05-05 17:27 49.63738 17.19399 33797 ft 436 kts 308°
2026-05-05 17:28 49.67648 17.12237 33794 ft 436 kts 308°
2026-05-05 17:28 49.71554 17.05068 33791 ft 436 kts 308°
2026-05-05 17:29 49.75455 16.97897 33785 ft 436 kts 308°
2026-05-05 17:29 49.79348 16.90718 33789 ft 436 kts 308°
2026-05-05 17:30 49.83242 16.83506 33776 ft 437 kts 308°
2026-05-05 17:30 49.87113 16.76311 33776 ft 437 kts 308°
2026-05-05 17:31 49.91010 16.69054 33776 ft 438 kts 308°
2026-05-05 17:31 49.94903 16.61780 33768 ft 438 kts 308°
2026-05-05 17:32 49.98789 16.54502 33772 ft 438 kts 307°
2026-05-05 17:32 50.02682 16.47197 33757 ft 439 kts 307°
2026-05-05 17:33 50.06566 16.39872 33760 ft 439 kts 307°
2026-05-05 17:33 50.10451 16.32550 33766 ft 439 kts 307°
2026-05-05 17:34 50.14335 16.25206 33761 ft 439 kts 307°
2026-05-05 17:34 50.18181 16.17887 33754 ft 439 kts 307°
2026-05-05 17:35 50.22050 16.10512 33779 ft 439 kts 307°
2026-05-05 17:35 50.25920 16.03133 33761 ft 439 kts 307°
2026-05-05 17:36 50.29780 15.95746 33757 ft 439 kts 307°
2026-05-05 17:36 50.33633 15.88334 33759 ft 439 kts 307°
2026-05-05 17:37 50.37485 15.80922 33770 ft 439 kts 306°
2026-05-05 17:37 50.41306 15.73541 33767 ft 439 kts 306°
2026-05-05 17:38 50.45160 15.66080 33765 ft 440 kts 306°
2026-05-05 17:38 50.49006 15.58606 33774 ft 440 kts 306°
2026-05-05 17:39 50.52896 15.51017 33772 ft 440 kts 306°
2026-05-05 17:39 50.56676 15.43618 33792 ft 439 kts 306°
2026-05-05 17:40 50.60570 15.36001 33792 ft 439 kts 306°
2026-05-05 17:40 50.64320 15.28647 33788 ft 438 kts 306°
2026-05-05 17:41 50.68130 15.21148 33783 ft 438 kts 306°
2026-05-05 17:41 50.71909 15.13676 33539 ft 438 kts 306°
2026-05-05 17:41 50.73803 15.09919 33292 ft 438 kts 305°
2026-05-05 17:42 50.75699 15.06156 33017 ft 438 kts 305°
2026-05-05 17:42 50.77599 15.02384 32750 ft 439 kts 305°
2026-05-05 17:42 50.79503 14.98597 32480 ft 440 kts 305°
2026-05-05 17:42 50.81406 14.94809 32223 ft 441 kts 305°
2026-05-05 17:43 50.83317 14.91000 31961 ft 442 kts 305°
2026-05-05 17:43 50.85224 14.87192 31705 ft 443 kts 305°
2026-05-05 17:43 50.87135 14.83362 31455 ft 444 kts 305°
2026-05-05 17:43 50.89048 14.79523 31200 ft 444 kts 305°
2026-05-05 17:44 50.91039 14.75760 30946 ft 447 kts 311°
2026-05-05 17:44 50.93372 14.72482 30706 ft 452 kts 320°
2026-05-05 17:44 50.96055 14.69810 30463 ft 458 kts 330°
2026-05-05 17:44 50.99016 14.67868 30231 ft 463 kts 340°
2026-05-05 17:45 51.02144 14.66568 29988 ft 466 kts 343°
2026-05-05 17:45 51.05289 14.65318 29718 ft 467 kts 343°
2026-05-05 17:45 51.08398 14.64073 29440 ft 467 kts 342°
2026-05-05 17:45 51.11555 14.62797 29158 ft 468 kts 342°
2026-05-05 17:46 51.14710 14.61518 28883 ft 468 kts 342°
2026-05-05 17:46 51.17877 14.60232 28610 ft 469 kts 342°
2026-05-05 17:46 51.21033 14.58950 28342 ft 469 kts 342°
2026-05-05 17:46 51.24199 14.57664 28070 ft 469 kts 342°
2026-05-05 17:47 51.27356 14.56383 27805 ft 468 kts 342°
2026-05-05 17:47 51.30514 14.55098 27538 ft 466 kts 342°
2026-05-05 17:47 51.33678 14.53813 26874 ft 462 kts 342°
2026-05-05 17:47 51.36746 14.52575 26185 ft 458 kts 343°
2026-05-05 17:48 51.39880 14.51740 25500 ft 458 kts 351°
2026-05-05 17:48 51.43046 14.51256 24813 ft 456 kts 351°
2026-05-05 17:48 51.46199 14.50775 24106 ft 454 kts 351°
2026-05-05 17:48 51.49334 14.50294 23426 ft 452 kts 351°
2026-05-05 17:49 51.52455 14.49809 22672 ft 449 kts 352°
2026-05-05 17:49 51.55548 14.49328 22005 ft 444 kts 352°
2026-05-05 17:49 51.58609 14.48857 21338 ft 439 kts 352°
2026-05-05 17:49 51.61600 14.48398 20700 ft 435 kts 352°
2026-05-05 17:50 51.64641 14.47927 20078 ft 430 kts 352°
2026-05-05 17:50 51.67561 14.47473 19486 ft 427 kts 352°
2026-05-05 17:50 51.70505 14.47016 18910 ft 423 kts 352°
2026-05-05 17:50 51.73422 14.46564 18339 ft 419 kts 352°
2026-05-05 17:51 51.76318 14.46115 17743 ft 416 kts 352°
2026-05-05 17:51 51.79193 14.45671 17171 ft 412 kts 352°
2026-05-05 17:51 51.81963 14.44872 16838 ft 401 kts 339°
2026-05-05 17:51 51.84461 14.42971 16577 ft 395 kts 323°
2026-05-05 17:52 51.86501 14.40070 16325 ft 387 kts 307°
2026-05-05 17:52 51.87926 14.36421 16072 ft 381 kts 291°
2026-05-05 17:52 51.88889 14.32468 15818 ft 379 kts 288°
2026-05-05 17:52 51.89837 14.28503 15575 ft 376 kts 288°
2026-05-05 17:53 51.90786 14.24559 15334 ft 374 kts 288°
2026-05-05 17:53 51.91730 14.20643 15082 ft 373 kts 288°
2026-05-05 17:53 51.92672 14.16737 14834 ft 372 kts 288°
2026-05-05 17:53 51.93609 14.12839 14592 ft 370 kts 288°
2026-05-05 17:54 51.94540 14.08962 14352 ft 369 kts 288°
2026-05-05 17:54 51.95464 14.05089 14113 ft 368 kts 288°
2026-05-05 17:54 51.96398 14.01172 13877 ft 366 kts 288°
2026-05-05 17:54 51.97311 13.97328 13668 ft 365 kts 288°
2026-05-05 17:55 51.98210 13.93537 13402 ft 364 kts 288°
2026-05-05 17:55 51.99129 13.89661 13125 ft 363 kts 288°
2026-05-05 17:55 52.00022 13.85892 12872 ft 361 kts 288°
2026-05-05 17:55 52.00933 13.82044 12617 ft 360 kts 288°
2026-05-05 17:56 52.01829 13.78254 12359 ft 359 kts 289°
2026-05-05 17:56 52.02721 13.74467 12102 ft 358 kts 288°
2026-05-05 17:56 52.03600 13.70716 11692 ft 353 kts 289°
2026-05-05 17:56 52.04468 13.67019 11155 ft 349 kts 289°
2026-05-05 17:57 52.05039 13.64587 10779 ft 346 kts 289°
2026-05-05 17:57 52.05884 13.60989 10551 ft 334 kts 289°
2026-05-05 17:57 52.06695 13.57534 10419 ft 317 kts 289°
2026-05-05 17:57 52.07465 13.54248 9981 ft 303 kts 289°
2026-05-05 17:58 52.08192 13.51148 9732 ft 287 kts 289°
2026-05-05 17:58 52.08898 13.48154 9395 ft 282 kts 289°
2026-05-05 17:58 52.09820 13.44221 8947 ft 280 kts 289°
2026-05-05 17:58 52.10285 13.42221 8723 ft 280 kts 289°
2026-05-05 17:59 52.10970 13.39271 8385 ft 279 kts 289°
2026-05-05 17:59 52.11654 13.36316 8059 ft 277 kts 289°
2026-05-05 17:59 52.12318 13.33423 7741 ft 275 kts 289°
2026-05-05 17:59 52.12982 13.30506 7412 ft 273 kts 289°
2026-05-05 18:00 52.13619 13.27672 7144 ft 260 kts 289°
2026-05-05 18:00 52.14226 13.24969 6909 ft 248 kts 289°
2026-05-05 18:00 52.14819 13.22355 6655 ft 246 kts 289°
2026-05-05 18:00 52.15403 13.19752 6408 ft 243 kts 289°
2026-05-05 18:01 52.15789 13.17087 6169 ft 242 kts 277°
2026-05-05 18:01 52.15983 13.14363 5910 ft 242 kts 275°
2026-05-05 18:01 52.16149 13.11639 5651 ft 242 kts 275°
2026-05-05 18:01 52.16311 13.08911 5405 ft 242 kts 275°
2026-05-05 18:02 52.16467 13.06198 5154 ft 240 kts 275°
2026-05-05 18:02 52.16622 13.03495 5014 ft 240 kts 275°
2026-05-05 18:02 52.16775 13.00791 4999 ft 240 kts 275°
2026-05-05 18:02 52.16952 12.98082 4999 ft 241 kts 282°
2026-05-05 18:03 52.17681 12.95674 5000 ft 239 kts 314°
2026-05-05 18:03 52.19065 12.94230 5000 ft 239 kts 343°
2026-05-05 18:03 52.20695 12.94096 5002 ft 237 kts 15°
2026-05-05 18:03 52.22119 12.95372 5001 ft 236 kts 46°
2026-05-05 18:04 52.22870 12.97684 5001 ft 229 kts 76°
2026-05-05 18:04 52.23312 13.00132 4971 ft 227 kts 71°
2026-05-05 18:04 52.23887 13.02596 4802 ft 234 kts 69°
2026-05-05 18:04 52.24491 13.05062 4627 ft 234 kts 69°
2026-05-05 18:05 52.25085 13.07502 4439 ft 227 kts 69°
2026-05-05 18:05 52.25655 13.09849 4109 ft 219 kts 69°
2026-05-05 18:05 52.26217 13.12171 3594 ft 221 kts 68°
2026-05-05 18:05 52.26782 13.14507 3122 ft 221 kts 68°
2026-05-05 18:06 52.27327 13.16763 2983 ft 204 kts 68°
2026-05-05 18:06 52.27659 13.18138 2992 ft 190 kts 68°
2026-05-05 18:06 52.28284 13.20727 3004 ft 179 kts 68°
2026-05-05 18:06 52.28735 13.22600 3039 ft 177 kts 68°
2026-05-05 18:07 52.29182 13.24454 2970 ft 175 kts 68°
2026-05-05 18:07 52.29625 13.26297 2793 ft 173 kts 69°
2026-05-05 18:07 52.30064 13.28125 2581 ft 171 kts 68°
2026-05-05 18:07 52.30496 13.29924 2365 ft 169 kts 68°
2026-05-05 18:08 52.30920 13.31691 2153 ft 162 kts 68°
2026-05-05 18:08 52.31315 13.33338 1924 ft 148 kts 68°
2026-05-05 18:08 52.31678 13.34853 1745 ft 140 kts 68°
2026-05-05 18:08 52.32021 13.36284 1560 ft 135 kts 66°
2026-05-05 18:09 52.32360 13.37701 1377 ft 133 kts 68°
2026-05-05 18:09 52.32702 13.39131 1190 ft 135 kts 67°
2026-05-05 18:09 52.33039 13.40543 1014 ft 134 kts 68°
2026-05-05 18:09 52.33377 13.41961 836 ft 134 kts 68°
2026-05-05 18:10 52.33714 13.43376 695 ft 133 kts 68°
2026-05-05 18:10 52.34057 13.44803 535 ft 136 kts 68°
2026-05-05 18:10 52.34393 13.46225 293 ft 134 kts 69°
2026-05-05 18:10 52.34728 13.47620 168 ft 122 kts 68°
2026-05-05 18:11 52.35001 13.48772 154 ft 90 kts 69°
2026-05-05 18:11 52.35166 13.49468 154 ft 42 kts 69°
2026-05-05 18:11 52.35273 13.49835 154 ft 33 kts 50°
2026-05-05 18:11 52.35432 13.50068 154 ft 16 kts 39°
2026-05-05 18:12 52.35473 13.50122 154 ft 6 kts 39°
2026-05-05 18:12 52.35523 13.50189 154 ft 11 kts 39°
2026-05-05 18:12 52.35585 13.50275 154 ft 13 kts 46°
2026-05-05 18:12 52.35628 13.50415 154 ft 15 kts 68°
2026-05-05 18:13 52.35651 13.50523 154 ft 6 kts 68°
2026-05-05 18:13 52.35663 13.50569 154 ft 0 kts 68°
2026-05-05 18:14 52.35663 13.50573 154 ft 2 kts 68°
2026-05-05 18:14 52.35681 13.50645 154 ft 11 kts 68°
2026-05-05 18:14 52.35719 13.50796 154 ft 16 kts 68°
2026-05-05 18:15 52.35765 13.50831 154 ft 11 kts 346°
2026-05-05 18:15 52.35909 13.50739 154 ft 27 kts 339°
2026-05-05 18:15 52.36089 13.50627 155 ft 25 kts 338°
2026-05-05 18:15 52.36211 13.50548 155 ft 15 kts 339°
2026-05-05 18:16 52.36288 13.50503 155 ft 3 kts
2026-05-05 18:16 52.36299 13.50546 155 ft 6 kts 70°
2026-05-05 18:16 52.36319 13.50627 155 ft 0 kts 69°
2026-05-05 18:16 52.36320 13.50632 155 ft 0 kts 68°